Change the Weather History Date:

Sunday, March 24, 2013

  Actual Average Record
Temperature  
Mean Temperature 30 °F -  
Max Temperature 33 °F 50 °F 74 °F (1959)
Min Temperature 28 °F 28 °F 1 °F (1974)
Degree Days  
Heating Degree Days 34    
Moisture  
Dew Point 25 °F    
Average Humidity 84    
Maximum Humidity 93    
Minimum Humidity 70    
Precipitation  
Precipitation 0.07 in - - ()
Sea Level Pressure  
Sea Level Pressure 29.88 in    
Wind  
Wind Speed 12 mph (NNE)    
Max Wind Speed 22 mph    
Max Gust Speed 25 mph    
Visibility 4 miles    
Events      
Averages and records for this station are not official NWS values.
T = Trace of Precipitation, MM = Missing Value Source: NWS Daily Summary

Daily Weather History Graph

Daily Weather History Graph

Search for Another Location

Airport or City:

Trip Planner

Search our weather history database for the weather conditions in past years. The results will help you decide how hot, cold, wet, or windy it might be!

Date:

Astronomy

Mar. 24, 2013 Rise Set
Actual Time 6:57 AM CDT 7:18 PM CDT
Civil Twilight 6:29 AM CDT 7:46 PM CDT
Nautical Twilight 5:56 AM CDT 8:18 PM CDT
Astronomical Twilight 5:23 AM CDT 8:52 PM CDT
Moon 4:44 PM CDT (3/24) 5:09 AM CDT (3/24)
Length of Visible Light 13h 16m
Length of Day
12h 20m
Waxing Gibbous, 92% of the Moon is Illuminated
Mar 24
Waxing Gibbous
Mar 27
Full
Apr 2
Last Quarter
Apr 10
New
Apr 18
First Quarter

Hourly Weather History & Observations

Time (CDT) Temp. Windchill Dew Point Humidity Pressure Visibility Wind Dir Wind Speed Gust Speed Precip Events Conditions
12:15 AM 28.4 °F 22.2 °F 26.6 °F 93% 30.07 in 1.0 mi ENE 5.8 mph - N/A   Clear
12:35 AM 28.4 °F 23.3 °F 26.6 °F 93% 30.07 in 1.0 mi ENE 4.6 mph - N/A   Clear
12:55 AM 28.4 °F 19.7 °F 26.6 °F 93% 30.05 in 1.5 mi ENE 9.2 mph - N/A   Clear
1:15 AM 28.4 °F 19.1 °F 26.6 °F 93% 30.03 in 3.0 mi NE 10.4 mph - N/A   Clear
1:35 AM 28.4 °F 19.1 °F 26.6 °F 93% 30.02 in 3.0 mi NE 10.4 mph - N/A   Clear
1:55 AM 28.4 °F 18.0 °F 26.6 °F 93% 30.02 in 3.0 mi ENE 12.7 mph - N/A   Clear
2:35 AM 28.4 °F 20.4 °F 24.8 °F 86% 30.01 in 5.0 mi NE 8.1 mph - N/A   Scattered Clouds
2:55 AM 28.4 °F 22.2 °F 24.8 °F 86% 30.00 in 5.0 mi NE 5.8 mph - N/A   Partly Cloudy
3:15 AM 28.4 °F 21.2 °F 24.8 °F 86% 30.00 in 4.0 mi NE 6.9 mph - N/A   Clear
3:35 AM 28.4 °F 22.2 °F 24.8 °F 86% 30.00 in 10.0 mi NNE 5.8 mph - N/A   Clear
3:55 AM 28.4 °F 22.2 °F 24.8 °F 86% 29.99 in 8.0 mi NNE 5.8 mph - N/A   Clear
4:15 AM 28.4 °F 22.2 °F 24.8 °F 86% 29.97 in 4.0 mi NE 5.8 mph - N/A   Mostly Cloudy
4:35 AM 28.4 °F 23.3 °F 24.8 °F 86% 29.97 in 2.5 mi NE 4.6 mph - N/A   Mostly Cloudy
4:55 AM 28.4 °F 19.1 °F 24.8 °F 86% 29.95 in 4.0 mi NE 10.4 mph - N/A   Partly Cloudy
5:15 AM 28.4 °F 18.0 °F 24.8 °F 86% 29.94 in 6.0 mi NE 12.7 mph - N/A   Clear
5:35 AM 28.4 °F 18.5 °F 24.8 °F 86% 29.94 in 8.0 mi NE 11.5 mph - N/A   Clear
5:55 AM 28.4 °F 18.0 °F 24.8 °F 86% 29.93 in 8.0 mi NNE 12.7 mph - N/A   Clear
6:15 AM 28.4 °F 18.5 °F 24.8 °F 86% 29.93 in 6.0 mi NNE 11.5 mph - N/A   Partly Cloudy
6:35 AM 28.4 °F 19.7 °F 24.8 °F 86% 29.94 in 3.0 mi NE 9.2 mph - N/A   Mostly Cloudy
6:55 AM 28.4 °F 20.4 °F 24.8 °F 86% 29.94 in 1.5 mi NNE 8.1 mph - N/A   Overcast
7:15 AM 28.4 °F 19.7 °F 24.8 °F 86% 29.94 in 2.0 mi NNE 9.2 mph - N/A   Scattered Clouds
7:35 AM 28.4 °F 19.1 °F 24.8 °F 86% 29.93 in 2.0 mi NNE 10.4 mph - N/A   Scattered Clouds
7:55 AM 28.4 °F 18.5 °F 24.8 °F 86% 29.92 in 2.5 mi NNE 11.5 mph - N/A   Scattered Clouds
8:15 AM 28.4 °F 18.0 °F 24.8 °F 86% 29.91 in 2.5 mi NNE 12.7 mph - N/A   Mostly Cloudy
8:35 AM 28.4 °F 17.5 °F 24.8 °F 86% 29.89 in 2.0 mi NNE 13.8 mph - N/A   Clear
8:55 AM 28.4 °F 16.6 °F 24.8 °F 86% 29.88 in 3.0 mi NNE 16.1 mph - N/A   Partly Cloudy
9:15 AM 28.4 °F 15.8 °F 24.8 °F 86% 29.86 in 6.0 mi NNE 18.4 mph - N/A   Mostly Cloudy
9:35 AM 30.2 °F 18.5 °F 24.8 °F 80% 29.86 in 10.0 mi NNE 17.3 mph - N/A   Mostly Cloudy
9:55 AM 30.2 °F 18.1 °F 24.8 °F 80% 29.85 in 10.0 mi NE 18.4 mph - N/A   Scattered Clouds
10:15 AM 32.0 °F 21.2 °F 24.8 °F 75% 29.85 in 10.0 mi NE 16.1 mph - N/A   Mostly Cloudy
10:35 AM 32.0 °F 21.6 °F 24.8 °F 75% 29.85 in 10.0 mi NE 15.0 mph - N/A   Overcast
10:55 AM 33.8 °F 24.3 °F 26.6 °F 75% 29.85 in 10.0 mi NE 13.8 mph - 0.02 in   Overcast
11:15 AM 33.8 °F 23.5 °F 24.8 °F 70% 29.85 in 10.0 mi NE 16.1 mph 19.6 mph 0.02 in   Overcast
11:35 AM 33.8 °F 23.5 °F 26.6 °F 75% 29.85 in 10.0 mi NE 16.1 mph 21.9 mph 0.03 in   Overcast
11:55 AM 33.8 °F 23.2 °F 24.8 °F 70% 29.85 in 10.0 mi NE 17.3 mph - 0.04 in   Overcast
12:15 PM 33.8 °F 23.9 °F 26.6 °F 75% 29.84 in 1.5 mi NE 15.0 mph 21.9 mph N/A   Overcast
12:35 PM 32.0 °F 21.2 °F 26.6 °F 80% 29.84 in 2.0 mi NE 16.1 mph - N/A   Overcast
12:55 PM 32.0 °F 22.1 °F 26.6 °F 80% 29.83 in 5.0 mi NE 13.8 mph - N/A   Overcast
1:15 PM 32.0 °F 21.2 °F 26.6 °F 80% 29.82 in 4.0 mi NE 16.1 mph - 0.01 in   Mostly Cloudy
1:35 PM 32.0 °F 20.8 °F 26.6 °F 80% 29.82 in 9.0 mi NNE 17.3 mph - 0.01 in   Overcast
2:15 PM 32.0 °F 20.8 °F 26.6 °F 80% 29.80 in 4.0 mi NNE 17.3 mph - N/A   Mostly Cloudy
2:35 PM 33.8 °F 23.2 °F 26.6 °F 75% 29.79 in 2.0 mi NNE 17.3 mph 21.9 mph N/A   Overcast
2:55 PM 32.0 °F 19.8 °F 26.6 °F 80% 29.78 in 2.0 mi NNE 20.7 mph - N/A   Overcast
3:15 PM 33.8 °F 21.9 °F 26.6 °F 75% 29.77 in 2.0 mi NNE 21.9 mph 25.3 mph N/A   Overcast
3:35 PM 32.0 °F 19.8 °F 26.6 °F 80% 29.77 in 2.5 mi NNE 20.7 mph 25.3 mph N/A   Scattered Clouds
3:55 PM 32.0 °F 19.5 °F 24.8 °F 75% 29.77 in 2.0 mi North 21.9 mph 25.3 mph N/A   Mostly Cloudy
4:15 PM 30.2 °F 17.1 °F 24.8 °F 80% 29.78 in 2.0 mi North 21.9 mph - N/A   Overcast
4:35 PM 30.2 °F 18.1 °F 26.6 °F 86% 29.78 in 2.0 mi North 18.4 mph 25.3 mph N/A   Scattered Clouds
4:55 PM 30.2 °F 18.5 °F 26.6 °F 86% 29.79 in 1.8 mi North 17.3 mph - N/A   Clear
5:15 PM 30.2 °F 19.3 °F 26.6 °F 86% 29.79 in 1.5 mi North 15.0 mph - N/A   Clear
5:35 PM 30.2 °F 18.5 °F 26.6 °F 86% 29.80 in 1.2 mi North 17.3 mph - N/A   Clear
5:55 PM 30.2 °F 18.5 °F 26.6 °F 86% 29.81 in 1.2 mi North 17.3 mph - N/A   Clear
6:15 PM 30.2 °F 18.5 °F 24.8 °F 80% 29.81 in 1.0 mi North 17.3 mph - N/A   Clear
6:35 PM 30.2 °F 19.8 °F 26.6 °F 86% 29.82 in 0.8 mi North 13.8 mph - N/A   Unknown
6:55 PM 30.2 °F 18.9 °F 26.6 °F 86% 29.82 in 0.8 mi North 16.1 mph - N/A   Unknown
7:15 PM 28.4 °F 16.2 °F 24.8 °F 86% 29.83 in 1.0 mi North 17.3 mph - N/A   Clear
7:35 PM 28.4 °F 17.0 °F 24.8 °F 86% 29.83 in 1.2 mi North 15.0 mph - N/A   Clear
7:55 PM 28.4 °F 17.0 °F 24.8 °F 86% 29.84 in 2.0 mi North 15.0 mph - N/A   Clear
8:15 PM 28.4 °F 18.0 °F 24.8 °F 86% 29.84 in 2.5 mi North 12.7 mph - N/A   Clear
8:35 PM 28.4 °F 17.0 °F 24.8 °F 86% 29.84 in 3.0 mi North 15.0 mph - N/A   Clear
8:55 PM 28.4 °F 17.0 °F 24.8 °F 86% 29.85 in 2.0 mi North 15.0 mph - N/A   Clear
9:15 PM 28.4 °F 18.0 °F 26.6 °F 93% 29.85 in 1.8 mi North 12.7 mph - N/A   Clear
9:35 PM 28.4 °F 17.0 °F 24.8 °F 86% 29.85 in 1.8 mi North 15.0 mph - N/A   Clear
9:55 PM 28.4 °F 17.5 °F 24.8 °F 86% 29.86 in 1.5 mi North 13.8 mph - N/A   Clear
10:15 PM 28.4 °F 17.0 °F 24.8 °F 86% 29.86 in 1.5 mi North 15.0 mph - N/A   Clear
10:35 PM 28.4 °F 17.0 °F 24.8 °F 86% 29.85 in 1.8 mi North 15.0 mph - N/A   Clear
10:55 PM 28.4 °F 16.6 °F 24.8 °F 86% 29.85 in 3.0 mi North 16.1 mph - N/A   Clear
11:15 PM 28.4 °F 16.6 °F 24.8 °F 86% 29.85 in 5.0 mi North 16.1 mph - N/A   Clear
11:35 PM 28.4 °F 17.0 °F 24.8 °F 86% 29.85 in 10.0 mi North 15.0 mph - N/A   Clear
11:55 PM 28.4 °F 18.0 °F 24.8 °F 86% 29.85 in 10.0 mi North 12.7 mph - N/A   Clear